CYZ2825 ZSNJ-ZBAA

Flight info

Callsign CYZ2825
Flight time 1h 24m
Altitude 34100
Route OF61X OF A470 DPX A593 DALIM W157 AVBOX
Aircraft B77L/H-SDE1E2E3FGHIJ2J3J4J5M1RWXY/LB1D1

Departure

Time 2026-05-09 10:56
Airport Nanjing Lukou International Airport (ZSNJ)

Arrival

Time 2026-05-09 12:20
Airport Beijing Capital International Airport (ZBAA)
Time Latitude Longitude Altitude Speed Heading
2026-05-09 10:30 31.72846 118.84620 63 ft 0 kts 238°
2026-05-09 10:46 31.72847 118.84624 63 ft 2 kts 237°
2026-05-09 10:46 31.72856 118.84640 54 ft 2 kts 240°
2026-05-09 10:46 31.72864 118.84657 54 ft 2 kts 244°
2026-05-09 10:47 31.72871 118.84675 54 ft 2 kts 257°
2026-05-09 10:47 31.72870 118.84694 55 ft 2 kts 316°
2026-05-09 10:47 31.72862 118.84701 54 ft 1 kts 328°
2026-05-09 10:50 31.72873 118.84693 56 ft 3 kts 327°
2026-05-09 10:50 31.72899 118.84673 55 ft 6 kts 327°
2026-05-09 10:51 31.72936 118.84645 54 ft 5 kts 328°
2026-05-09 10:51 31.72970 118.84646 55 ft 5 kts 27°
2026-05-09 10:51 31.72995 118.84677 59 ft 5 kts 51°
2026-05-09 10:51 31.73016 118.84712 55 ft 5 kts 57°
2026-05-09 10:52 31.73036 118.84748 54 ft 5 kts 57°
2026-05-09 10:52 31.73058 118.84783 54 ft 6 kts 43°
2026-05-09 10:52 31.73097 118.84790 57 ft 6 kts 349°
2026-05-09 10:52 31.73137 118.84766 54 ft 7 kts 329°
2026-05-09 10:53 31.73182 118.84733 57 ft 8 kts 328°
2026-05-09 10:53 31.73234 118.84695 55 ft 9 kts 328°
2026-05-09 10:53 31.73290 118.84653 56 ft 8 kts 327°
2026-05-09 10:53 31.73336 118.84624 56 ft 7 kts 345°
2026-05-09 10:54 31.73383 118.84643 58 ft 7 kts 38°
2026-05-09 10:54 31.73404 118.84675 57 ft 0 kts 59°
2026-05-09 10:54 31.73405 118.84677 57 ft 1 kts 59°
2026-05-09 10:55 31.73437 118.84738 54 ft 24 kts 58°
2026-05-09 10:55 31.73650 118.85135 52 ft 93 kts 58°
2026-05-09 10:55 31.74106 118.85986 52 ft 152 kts 58°
2026-05-09 10:55 31.74749 118.87169 233 ft 179 kts 58°
2026-05-09 10:56 31.75410 118.88370 805 ft 176 kts 60°
2026-05-09 10:56 31.76066 118.89596 1340 ft 177 kts 62°
2026-05-09 10:56 31.76713 118.90828 1942 ft 177 kts 61°
2026-05-09 10:56 31.77363 118.92062 2503 ft 178 kts 60°
2026-05-09 10:57 31.78021 118.93307 3049 ft 180 kts 60°
2026-05-09 10:57 31.78698 118.94586 3424 ft 194 kts 60°
2026-05-09 10:57 31.79453 118.96014 3634 ft 215 kts 59°
2026-05-09 10:57 31.80261 118.97537 4132 ft 224 kts 59°
2026-05-09 10:58 31.81154 118.99059 4638 ft 233 kts 45°
2026-05-09 10:58 31.82668 118.99932 4872 ft 258 kts
2026-05-09 10:58 31.84453 118.99513 5427 ft 271 kts 332°
2026-05-09 10:58 31.86062 118.98305 6019 ft 278 kts 328°
2026-05-09 10:59 31.87683 118.97031 6767 ft 281 kts 327°
2026-05-09 10:59 31.89371 118.95710 7576 ft 282 kts 327°
2026-05-09 10:59 31.90944 118.94488 8305 ft 284 kts 327°
2026-05-09 10:59 31.92598 118.93213 9083 ft 285 kts 327°
2026-05-09 11:00 31.94261 118.91939 9875 ft 286 kts 326°
2026-05-09 11:00 31.95951 118.90651 10460 ft 294 kts 326°
2026-05-09 11:00 31.97739 118.89291 10650 ft 318 kts 326°
2026-05-09 11:00 31.99667 118.87828 10845 ft 342 kts 326°
2026-05-09 11:01 32.01736 118.86260 11093 ft 363 kts 326°
2026-05-09 11:01 32.03895 118.84626 11741 ft 372 kts 326°
2026-05-09 11:01 32.06088 118.82966 12591 ft 376 kts 326°
2026-05-09 11:01 32.08293 118.81296 13535 ft 378 kts 326°
2026-05-09 11:02 32.10510 118.79617 14386 ft 380 kts 326°
2026-05-09 11:02 32.12747 118.77921 15158 ft 385 kts 326°
2026-05-09 11:02 32.15035 118.76245 15885 ft 390 kts 330°
2026-05-09 11:02 32.17491 118.74837 16647 ft 395 kts 335°
2026-05-09 11:03 32.20080 118.73720 17423 ft 399 kts 341°
2026-05-09 11:03 32.22765 118.72805 18173 ft 403 kts 342°
2026-05-09 11:03 32.25447 118.71920 18801 ft 408 kts 342°
2026-05-09 11:03 32.28232 118.71006 19445 ft 412 kts 341°
2026-05-09 11:04 32.31005 118.70089 20074 ft 415 kts 341°
2026-05-09 11:04 32.33761 118.69170 20699 ft 419 kts 340°
2026-05-09 11:04 32.36612 118.68212 21318 ft 423 kts 340°
2026-05-09 11:04 32.39424 118.67262 21892 ft 427 kts 339°
2026-05-09 11:05 32.42298 118.66289 22466 ft 431 kts 339°
2026-05-09 11:05 32.45199 118.65305 23030 ft 435 kts 338°
2026-05-09 11:05 32.48120 118.64315 23594 ft 439 kts 338°
2026-05-09 11:05 32.51066 118.63315 24052 ft 442 kts 338°
2026-05-09 11:06 32.54040 118.62306 24528 ft 445 kts 338°
2026-05-09 11:06 32.57034 118.61290 25016 ft 448 kts 338°
2026-05-09 11:06 32.60037 118.60270 25508 ft 451 kts 338°
2026-05-09 11:06 32.63056 118.59244 25985 ft 453 kts 338°
2026-05-09 11:07 32.66099 118.58208 26454 ft 456 kts 338°
2026-05-09 11:07 32.69160 118.57158 26903 ft 459 kts 337°
2026-05-09 11:07 32.71193 118.56443 27193 ft 461 kts 337°
2026-05-09 11:07 32.75289 118.54985 27782 ft 465 kts 336°
2026-05-09 11:08 32.78409 118.53869 28225 ft 468 kts 336°
2026-05-09 11:08 32.81540 118.52750 28651 ft 471 kts 337°
2026-05-09 11:08 32.84689 118.51626 29048 ft 474 kts 337°
2026-05-09 11:08 32.87862 118.50495 29440 ft 477 kts 337°
2026-05-09 11:09 32.89975 118.49743 29715 ft 479 kts 337°
2026-05-09 11:09 32.93163 118.48609 30209 ft 478 kts 337°
2026-05-09 11:09 32.96349 118.47477 30733 ft 476 kts 337°
2026-05-09 11:09 32.99514 118.46351 31259 ft 473 kts 336°
2026-05-09 11:10 33.02654 118.45231 31763 ft 471 kts 336°
2026-05-09 11:10 33.05794 118.44109 32205 ft 470 kts 336°
2026-05-09 11:10 33.08918 118.42991 32642 ft 469 kts 336°
2026-05-09 11:10 33.12035 118.41875 33089 ft 467 kts 336°
2026-05-09 11:11 33.15149 118.40759 33546 ft 465 kts 336°
2026-05-09 11:11 33.18252 118.39647 33987 ft 464 kts 336°
2026-05-09 11:11 33.21342 118.38537 34116 ft 466 kts 336°
2026-05-09 11:12 33.27529 118.36313 34104 ft 462 kts 336°
2026-05-09 11:12 33.33625 118.34115 34117 ft 460 kts 336°
2026-05-09 11:13 33.39745 118.31903 34112 ft 459 kts 336°
2026-05-09 11:13 33.45853 118.29692 34116 ft 458 kts 336°
2026-05-09 11:14 33.51961 118.27478 34111 ft 458 kts 336°
2026-05-09 11:14 33.58056 118.25267 34111 ft 457 kts 336°
2026-05-09 11:15 33.64146 118.23053 34101 ft 457 kts 336°
2026-05-09 11:15 33.70230 118.20839 34101 ft 456 kts 336°
2026-05-09 11:16 33.76265 118.18639 34106 ft 456 kts 336°
2026-05-09 11:16 33.82334 118.16424 34102 ft 456 kts 335°
2026-05-09 11:17 33.88399 118.14210 34099 ft 455 kts 335°
2026-05-09 11:17 33.94467 118.11993 34104 ft 455 kts 335°
2026-05-09 11:18 34.00532 118.09773 34096 ft 455 kts 335°
2026-05-09 11:18 34.06591 118.07560 34100 ft 454 kts 335°
2026-05-09 11:19 34.12603 118.05367 34090 ft 454 kts 335°
2026-05-09 11:19 34.18637 118.03160 34091 ft 453 kts 335°
2026-05-09 11:20 34.24662 118.00953 34083 ft 452 kts 335°
2026-05-09 11:20 34.30682 117.98759 34084 ft 452 kts 335°
2026-05-09 11:21 34.36714 117.96617 34077 ft 452 kts 335°
2026-05-09 11:21 34.42746 117.94478 34076 ft 452 kts 335°
2026-05-09 11:22 34.48788 117.92325 34076 ft 452 kts 335°
2026-05-09 11:22 34.54829 117.90165 34080 ft 453 kts 335°
2026-05-09 11:23 34.60882 117.87997 34075 ft 453 kts 335°
2026-05-09 11:23 34.66893 117.85841 34072 ft 454 kts 335°
2026-05-09 11:24 34.72947 117.83667 34074 ft 454 kts 335°
2026-05-09 11:24 34.79002 117.81489 34063 ft 453 kts 335°
2026-05-09 11:25 34.85057 117.79322 34065 ft 453 kts 335°
2026-05-09 11:25 34.91101 117.77141 34073 ft 452 kts 335°
2026-05-09 11:26 34.97130 117.74938 34070 ft 452 kts 335°
2026-05-09 11:26 35.03152 117.72742 34071 ft 451 kts 335°
2026-05-09 11:27 35.09159 117.70550 34061 ft 450 kts 335°
2026-05-09 11:27 35.15142 117.68356 34060 ft 448 kts 335°
2026-05-09 11:28 35.21111 117.66162 34053 ft 447 kts 335°
2026-05-09 11:28 35.27063 117.63970 34059 ft 446 kts 335°
2026-05-09 11:29 35.32971 117.61790 34053 ft 446 kts 335°
2026-05-09 11:29 35.38917 117.59593 34054 ft 447 kts 335°
2026-05-09 11:30 35.44868 117.57393 34047 ft 446 kts 335°
2026-05-09 11:30 35.50818 117.55189 34046 ft 445 kts 335°
2026-05-09 11:31 35.56755 117.52987 34034 ft 445 kts 335°
2026-05-09 11:31 35.62673 117.50788 34038 ft 444 kts 335°
2026-05-09 11:32 35.68558 117.48598 34032 ft 444 kts 335°
2026-05-09 11:32 35.74476 117.46392 34023 ft 445 kts 335°
2026-05-09 11:33 35.80404 117.44179 34029 ft 445 kts 336°
2026-05-09 11:33 35.89313 117.40846 34021 ft 446 kts 336°
2026-05-09 11:34 35.95261 117.38617 34020 ft 447 kts 336°
2026-05-09 11:34 36.01217 117.36383 34018 ft 448 kts 336°
2026-05-09 11:35 36.07202 117.34164 34005 ft 449 kts 337°
2026-05-09 11:35 36.13192 117.31953 34003 ft 449 kts 336°
2026-05-09 11:36 36.19130 117.29750 34010 ft 449 kts 336°
2026-05-09 11:36 36.25111 117.27526 34007 ft 448 kts 336°
2026-05-09 11:37 36.31082 117.25302 34005 ft 448 kts 337°
2026-05-09 11:37 36.37058 117.23073 33995 ft 448 kts 337°
2026-05-09 11:38 36.42991 117.20737 33989 ft 445 kts 333°
2026-05-09 11:38 36.47729 117.18301 33976 ft 443 kts 331°
2026-05-09 11:39 36.51296 117.16420 33979 ft 443 kts 331°
2026-05-09 11:40 36.59779 117.11960 33951 ft 443 kts 332°
2026-05-09 11:40 36.65472 117.08986 33933 ft 443 kts 332°
2026-05-09 11:41 36.71159 117.06016 33923 ft 443 kts 332°
2026-05-09 11:41 36.76853 117.03038 33915 ft 443 kts 332°
2026-05-09 11:42 36.82545 117.00055 33916 ft 444 kts 332°
2026-05-09 11:42 36.88244 116.97063 33920 ft 444 kts 332°
2026-05-09 11:43 36.93930 116.94074 33922 ft 444 kts 332°
2026-05-09 11:43 36.99592 116.91092 33921 ft 444 kts 332°
2026-05-09 11:44 37.05284 116.88089 33920 ft 444 kts 332°
2026-05-09 11:44 37.10977 116.85081 33915 ft 443 kts 332°
2026-05-09 11:45 37.16656 116.82075 33917 ft 443 kts 332°
2026-05-09 11:45 37.22362 116.79131 33912 ft 444 kts 335°
2026-05-09 11:46 37.28254 116.76862 33913 ft 446 kts 338°
2026-05-09 11:46 37.34204 116.74663 33901 ft 445 kts 338°
2026-05-09 11:47 37.40136 116.72443 33900 ft 445 kts 338°
2026-05-09 11:47 37.46058 116.70205 33897 ft 444 kts 338°
2026-05-09 11:48 37.51974 116.67959 33894 ft 444 kts 338°
2026-05-09 11:48 37.57874 116.65718 33736 ft 440 kts 338°
2026-05-09 11:48 37.60796 116.64608 33402 ft 437 kts 338°
2026-05-09 11:49 37.63707 116.63500 33014 ft 436 kts 338°
2026-05-09 11:49 37.66599 116.62398 32665 ft 434 kts 338°
2026-05-09 11:49 37.69485 116.61297 32357 ft 431 kts 338°
2026-05-09 11:49 37.72353 116.60202 32061 ft 428 kts 338°
2026-05-09 11:50 37.75197 116.59116 31775 ft 426 kts 338°
2026-05-09 11:50 37.78021 116.58036 31491 ft 423 kts 338°
2026-05-09 11:50 37.80834 116.56960 31212 ft 421 kts 338°
2026-05-09 11:50 37.83625 116.55890 30935 ft 418 kts 338°
2026-05-09 11:51 37.86401 116.54826 30662 ft 415 kts 338°
2026-05-09 11:51 37.89145 116.53775 30329 ft 408 kts 338°
2026-05-09 11:51 37.91842 116.52741 30010 ft 401 kts 338°
2026-05-09 11:51 37.94474 116.51678 29634 ft 392 kts 334°
2026-05-09 11:52 37.96948 116.50309 29112 ft 386 kts 329°
2026-05-09 11:52 37.99306 116.48719 28528 ft 382 kts 326°
2026-05-09 11:52 38.01494 116.46931 27994 ft 377 kts 321°
2026-05-09 11:52 38.03613 116.44990 27474 ft 374 kts 320°
2026-05-09 11:53 38.05701 116.43050 26984 ft 371 kts 320°
2026-05-09 11:53 38.07783 116.41127 26498 ft 369 kts 321°
2026-05-09 11:53 38.09856 116.39225 26021 ft 366 kts 321°
2026-05-09 11:53 38.11915 116.37338 25553 ft 364 kts 320°
2026-05-09 11:54 38.13960 116.35454 25085 ft 362 kts 320°
2026-05-09 11:54 38.15993 116.33575 24635 ft 360 kts 320°
2026-05-09 11:54 38.18011 116.31708 24197 ft 358 kts 320°
2026-05-09 11:54 38.20017 116.29853 23773 ft 356 kts 320°
2026-05-09 11:55 38.22015 116.28004 23346 ft 354 kts 320°
2026-05-09 11:56 38.33349 116.26745 20816 ft 379 kts
2026-05-09 11:56 38.35882 116.27677 20354 ft 378 kts
2026-05-09 11:56 38.38408 116.28607 19903 ft 377 kts
2026-05-09 11:57 38.40919 116.29514 19466 ft 375 kts
2026-05-09 11:57 38.43425 116.30401 19028 ft 373 kts
2026-05-09 11:57 38.45924 116.31273 18603 ft 371 kts
2026-05-09 11:57 38.48418 116.32137 18175 ft 370 kts
2026-05-09 11:58 38.50898 116.32993 17703 ft 368 kts
2026-05-09 11:58 38.53362 116.33844 17264 ft 366 kts
2026-05-09 11:58 38.55806 116.34689 16906 ft 360 kts
2026-05-09 11:58 38.58191 116.35516 16839 ft 352 kts
2026-05-09 11:59 38.60576 116.36337 16611 ft 358 kts
2026-05-09 11:59 38.62961 116.37160 16569 ft 360 kts
2026-05-09 11:59 38.65389 116.37996 16525 ft 363 kts
2026-05-09 11:59 38.67846 116.38743 16502 ft 361 kts
2026-05-09 12:00 38.70298 116.39425 16498 ft 360 kts
2026-05-09 12:00 38.72746 116.40093 16493 ft 359 kts
2026-05-09 12:00 38.75183 116.40776 16429 ft 361 kts
2026-05-09 12:00 38.77652 116.41485 16173 ft 363 kts
2026-05-09 12:01 38.80112 116.42198 15921 ft 361 kts
2026-05-09 12:01 38.82550 116.42908 15668 ft 357 kts
2026-05-09 12:01 38.84962 116.43609 15424 ft 353 kts
2026-05-09 12:01 38.87344 116.44300 15173 ft 350 kts
2026-05-09 12:02 38.89713 116.44986 14926 ft 347 kts
2026-05-09 12:02 38.92061 116.45666 14688 ft 345 kts
2026-05-09 12:02 38.94389 116.46339 14441 ft 341 kts
2026-05-09 12:02 38.96682 116.47004 14193 ft 334 kts
2026-05-09 12:03 38.98899 116.47649 13954 ft 327 kts
2026-05-09 12:03 39.01100 116.48288 13706 ft 320 kts
2026-05-09 12:03 39.03251 116.48913 13444 ft 314 kts
2026-05-09 12:03 39.05354 116.49523 13172 ft 307 kts
2026-05-09 12:04 39.07433 116.50126 12898 ft 303 kts
2026-05-09 12:04 39.09476 116.50718 12640 ft 300 kts
2026-05-09 12:04 39.11510 116.51307 12391 ft 299 kts
2026-05-09 12:04 39.13531 116.51893 12138 ft 297 kts
2026-05-09 12:05 39.15546 116.52478 11892 ft 296 kts
2026-05-09 12:05 39.17554 116.53062 11647 ft 295 kts
2026-05-09 12:05 39.19555 116.53644 11400 ft 294 kts
2026-05-09 12:05 39.21555 116.54226 11152 ft 294 kts
2026-05-09 12:06 39.23546 116.54806 10918 ft 293 kts
2026-05-09 12:06 39.25539 116.55387 10689 ft 293 kts
2026-05-09 12:06 39.27525 116.55967 10441 ft 293 kts
2026-05-09 12:06 39.29511 116.56549 10211 ft 292 kts
2026-05-09 12:07 39.31493 116.57131 9975 ft 292 kts
2026-05-09 12:07 39.33475 116.57711 9742 ft 292 kts
2026-05-09 12:07 39.35455 116.58286 9485 ft 292 kts
2026-05-09 12:07 39.37409 116.58851 9236 ft 292 kts
2026-05-09 12:08 39.39391 116.59422 8989 ft 291 kts
2026-05-09 12:08 39.41357 116.59988 8733 ft 290 kts
2026-05-09 12:08 39.43315 116.60555 8467 ft 284 kts
2026-05-09 12:08 39.45218 116.61110 8205 ft 277 kts
2026-05-09 12:09 39.47078 116.61657 7940 ft 271 kts
2026-05-09 12:09 39.48896 116.62198 7667 ft 265 kts
2026-05-09 12:09 39.50674 116.62731 7406 ft 260 kts
2026-05-09 12:10 39.55943 116.64319 6692 ft 259 kts
2026-05-09 12:10 39.57700 116.64849 6463 ft 257 kts
2026-05-09 12:10 39.59413 116.65369 6269 ft 248 kts
2026-05-09 12:11 39.61058 116.65878 6042 ft 239 kts
2026-05-09 12:11 39.62626 116.66362 5955 ft 232 kts
2026-05-09 12:11 39.64214 116.66811 5901 ft 228 kts 358°
2026-05-09 12:11 39.65712 116.66559 5932 ft 219 kts 338°
2026-05-09 12:12 39.67228 116.66113 5903 ft 225 kts 343°
2026-05-09 12:12 39.68740 116.65814 5898 ft 214 kts 345°
2026-05-09 12:12 39.70190 116.65568 5780 ft 208 kts 346°
2026-05-09 12:12 39.71620 116.65335 5515 ft 206 kts 346°
2026-05-09 12:13 39.73042 116.65109 5259 ft 207 kts 347°
2026-05-09 12:13 39.74476 116.64883 5017 ft 208 kts 347°
2026-05-09 12:13 39.75924 116.64656 4785 ft 210 kts 348°
2026-05-09 12:13 39.77384 116.64428 4558 ft 212 kts 348°
2026-05-09 12:14 39.78849 116.64200 4309 ft 212 kts 349°
2026-05-09 12:14 39.80308 116.63973 4074 ft 210 kts 349°
2026-05-09 12:14 39.81744 116.63749 3813 ft 205 kts 349°
2026-05-09 12:14 39.83143 116.63531 3565 ft 200 kts 349°
2026-05-09 12:15 39.84522 116.63315 3348 ft 200 kts 349°
2026-05-09 12:15 39.85907 116.63098 3148 ft 199 kts 350°
2026-05-09 12:15 39.87257 116.62887 3087 ft 197 kts 350°
2026-05-09 12:15 39.88623 116.62673 3047 ft 199 kts 351°
2026-05-09 12:16 39.90005 116.62456 3035 ft 201 kts 351°
2026-05-09 12:16 39.91387 116.62238 2918 ft 198 kts 351°
2026-05-09 12:16 39.92744 116.62027 2654 ft 195 kts 351°
2026-05-09 12:16 39.94052 116.61823 2423 ft 183 kts 351°
2026-05-09 12:17 39.95272 116.61632 2190 ft 171 kts 352°
2026-05-09 12:17 39.96440 116.61446 1948 ft 166 kts 353°
2026-05-09 12:17 39.97551 116.61272 1762 ft 158 kts 354°
2026-05-09 12:17 39.98632 116.61102 1537 ft 155 kts 354°
2026-05-09 12:18 39.99697 116.60936 1345 ft 154 kts 354°
2026-05-09 12:18 40.00768 116.60767 1132 ft 155 kts 354°
2026-05-09 12:18 40.01841 116.60599 909 ft 155 kts 354°
2026-05-09 12:18 40.02907 116.60431 683 ft 153 kts 354°
2026-05-09 12:19 40.03960 116.60263 468 ft 152 kts 353°
2026-05-09 12:19 40.05004 116.60097 263 ft 151 kts 354°
2026-05-09 12:19 40.06045 116.59935 137 ft 147 kts 354°
2026-05-09 12:19 40.06937 116.59797 125 ft 101 kts 353°
2026-05-09 12:20 40.07407 116.59725 125 ft 36 kts 353°
2026-05-09 12:20 40.07647 116.59729 126 ft 34 kts 13°
2026-05-09 12:20 40.07800 116.59803 124 ft 18 kts 23°
2026-05-09 12:20 40.07884 116.59850 126 ft 9 kts 23°
2026-05-09 12:21 40.07945 116.59870 126 ft 9 kts
2026-05-09 12:21 40.08008 116.59865 125 ft 9 kts 354°
2026-05-09 12:21 40.08071 116.59855 124 ft 9 kts 353°
2026-05-09 12:21 40.08134 116.59845 125 ft 9 kts 353°
2026-05-09 12:22 40.08181 116.59869 123 ft 8 kts 59°
2026-05-09 12:22 40.08208 116.59930 129 ft 8 kts 36°
2026-05-09 12:22 40.08262 116.59939 124 ft 8 kts 357°
2026-05-09 12:22 40.08328 116.59930 126 ft 11 kts 353°
2026-05-09 12:23 40.08411 116.59917 124 ft 13 kts 353°
2026-05-09 12:23 40.08511 116.59902 125 ft 16 kts 353°
2026-05-09 12:23 40.08621 116.59884 126 ft 16 kts 353°
2026-05-09 12:23 40.08731 116.59866 126 ft 16 kts 353°
2026-05-09 12:24 40.08846 116.59848 126 ft 17 kts 353°
2026-05-09 12:24 40.08970 116.59829 125 ft 19 kts 353°
2026-05-09 12:24 40.09104 116.59808 124 ft 20 kts 353°
2026-05-09 12:24 40.09241 116.59787 125 ft 20 kts 353°
2026-05-09 12:25 40.09373 116.59766 125 ft 18 kts 353°
2026-05-09 12:25 40.09494 116.59747 126 ft 17 kts 353°
2026-05-09 12:25 40.09593 116.59731 126 ft 11 kts 353°
2026-05-09 12:25 40.09655 116.59724 126 ft 8 kts
2026-05-09 12:26 40.09686 116.59776 124 ft 7 kts 70°
2026-05-09 12:26 40.09724 116.59817 125 ft 8 kts 12°
2026-05-09 12:26 40.09776 116.59817 126 ft 8 kts 356°
2026-05-09 12:26 40.09813 116.59836 123 ft 5 kts 45°
2026-05-09 12:27 40.09821 116.59875 124 ft 4 kts 84°
2026-05-09 12:27 40.09823 116.59907 124 ft 3 kts 83°
2026-05-09 12:27 40.09825 116.59927 127 ft 2 kts 83°
2026-05-09 12:27 40.09826 116.59935 126 ft 0 kts 83°